This is the latest recevied weather packets stored in our database for station/object KB4MLW-13. If no packets are shown the sender has not sent any weather packets the latest 10 day(s).
| Time | Temp. | Humidity | Pressure | Rain* | Wind** | Luminosity | Snow |
|---|---|---|---|---|---|---|---|
| 1788287159 | 33.33° C | 61% | 1001.8 hPa | 0 mm | - | - | - |
| 1788287068 | 33.33° C | 61% | 1001.9 hPa | 0 mm | - | - | - |
| 1788286979 | 33.33° C | 63% | 1001.8 hPa | 0 mm | - | - | - |
| 1788286889 | 33.33° C | 61% | 1001.8 hPa | 0 mm | - | - | - |
| 1788286798 | 33.89° C | 60% | 1001.7 hPa | 0 mm | - | - | - |
| 1788286708 | 33.89° C | 61% | 1001.8 hPa | 0 mm | - | - | - |
| 1788286619 | 33.33° C | 60% | 1001.8 hPa | 0 mm | - | - | - |
| 1788286558 | 33.33° C | 61% | 1002 hPa | 0 mm | - | - | - |
| 1788286498 | 33.33° C | 62% | 1001.9 hPa | 0 mm | - | - | - |
| 1788286438 | 33.33° C | 62% | 1001.8 hPa | 0 mm | - | - | - |
| 1788286349 | 33.33° C | 61% | 1002 hPa | 0 mm | - | - | - |
| 1788286288 | 33.33° C | 63% | 1002 hPa | 0 mm | - | - | - |
| 1788286198 | 33.33° C | 61% | 1001.8 hPa | 0 mm | - | - | - |
| 1788286138 | 33.33° C | 62% | 1001.8 hPa | 0 mm | - | - | - |
| 1788286048 | 33.33° C | 64% | 1001.9 hPa | 0 mm | - | - | - |
| 1788285988 | 33.33° C | 66% | 1002.1 hPa | 0 mm | - | - | - |
| 1788285928 | 33.33° C | 63% | 1002 hPa | 0 mm | - | - | - |
| 1788285868 | 33.33° C | 63% | 1001.9 hPa | 0 mm | - | - | - |
| 1788285778 | 33.89° C | 61% | 1002.1 hPa | 0 mm | - | - | - |
| 1788285718 | 33.89° C | 61% | 1002 hPa | 0 mm | - | - | - |
| 1788285658 | 33.89° C | 61% | 1002.1 hPa | 0 mm | - | - | - |
| 1788285569 | 33.89° C | 64% | 1002.1 hPa | 0 mm | - | - | - |
| 1788285509 | 33.89° C | 60% | 1002.2 hPa | 0 mm | - | - | - |
| 1788285419 | 33.33° C | 62% | 1002.1 hPa | 0 mm | - | - | - |
| 1788285359 | 33.33° C | 61% | 1001.9 hPa | 0 mm | - | - | - |
* Rain latest hour (hover to see other rain measurements)
** Current wind speed in m/s (hover to see current wind gust speed)